Showing default

METEOR 2-7, 12456

Orbit data source: Space-Track

METEOR 2-7, 12456 is a Commonwealth of Independent States-origin payload satellite in LEO that was launched on Thu, 14 May 1981 UTC via a VOSTOK 8A92M launch vehicle from the Plesetsk Missile And Space Complex (PKMTR). Payload-class satellites include a variety of spacecraft equipped with specific instruments for various scientific and technological missions. These include communications satellites like Starlink; space stations such as the ISS; scientific satellites like the Hubble; Earth observation satellites from companies like Planet Labs, Umbra, and HawkEye 360; GPS; miniature CubeSats for education and research; and military/defense satellites.

Loading next visibility...
Identifier
12456, 1981-043A
Orbit
LEO
Country
Flag of CISCIS
Related business
Manufacturer
VNIIEM
Mission
Civil Weather
Bus & Motor
METEOR-2, Unknown motor
Mass
~1,500 kg wet, ~1,500 kg dry
Launch date (UTC)
1981-05-14 (44 years ago)
Launch vehicle
VOSTOK 8A92M
Launch site
Plesetsk Missile And Space Complex (PKMTR)
Object type
Payload
Rocket body
Debris
Shape & HBR
Cyl + 2 Pan, 2.3 m
Radar Cross Section
5.718 m², Large (>1 m²)

Expand to show TLE details & history
Last TLE update: 19 hours ago

TLE from 19 hours ago
0 METEOR 2-7
1 12456U 81043A   25259.55300619  .00000212  00000-0  10996-3 0  9999
2 12456  81.2694   5.2044 0047578 185.2760 174.7917 14.10966128280469
Epoch: 2025-09-16T13:16Z
TLE epoch observation values (Epoch: 2025-09-16T13:16:19.734Z)
Latitude
-0.00004°
Longitude
170.38051°
Altitude
893.254 km
Speed
7.388 km/s
True Right ascension
00h 20m 49s
True Declination
0° 00' 00"
Sunlit
Object was in full shadow at epoch
Visualization orbit readout
Latitude
Unknown
Longitude
Unknown
Altitude
Unknown
Speed
Unknown
Apparent Right ascension
Unknown
Apparent Declination
Unknown
Sunlit
N/A
Visualization observer readout
Local Sidereal Time
00:37:43
Azimuth
Unknown
Elevation
Unknown
Doppler factor
Unknown
Orbital elements
Apogee altitude
887.645 km
Perigee altitude
818.834 km
Semi-major axis
7,231.376 km
Eccentricity
0.00476
Inclination
81.2694°
RAAN
5.2044°
Arg. of periapsis
185.276°
True anomaly
174.8409°
Mean anomaly
174.7917°
Eccentric anomaly
174.81633°
Mean motion
3.52949 °/min
Orbital period
102 mins
BSTAR
0.00010996
Loading maneuver chart data...
Computing Atmospheric mass density...
Loading historical data...
Loading historical data...
Loading historical data...
Loading historical data...
Loading historical data...
Loading historical data...
Loading historical data...

Documentation

Showing up to 5 results
|